| time (UTC) | temp C | wind direction | speed KPH | gust KPH | rain 1hr cm | rain 24hr cm | rain mn cm | humidity % | barometer mb |
| 20260505140104 | 18 | 0 | 0.0 | 4.8 | 0.00 | 0.00 | 0.00 | 58 | 1018.0 |
| 20260505124559 | 11 | 0 | 0.0 | 0.0 | 0.00 | 0.00 | 0.00 | 92 | 1017.6 |
| 20260505123109 | 10 | 0 | 0.0 | 0.0 | 0.00 | 0.00 | 0.00 | 92 | 1017.8 |
| 20260505121550 | 8 | 0 | 0.0 | 1.6 | 0.00 | 0.00 | 0.00 | 92 | 1017.7 |
| 20260505120053 | 7 | 0 | 0.0 | 0.0 | 0.00 | 0.00 | 0.00 | 91 | 1017.6 |
| 20260505114600 | 6 | 0 | 0.0 | 0.0 | 0.00 | 0.00 | 0.00 | 91 | 1017.4 |
| 20260505113052 | 5 | 0 | 0.0 | 0.0 | 0.00 | 0.00 | 0.00 | 89 | 1017.4 |
| 20260505111556 | 5 | 0 | 0.0 | 0.0 | 0.00 | 0.00 | 0.00 | 89 | 1017.6 |
| 20260505101550 | 6 | 0 | 0.0 | 0.0 | 0.00 | 0.00 | 0.00 | 88 | 1017.3 |
| 20260505100045 | 6 | 0 | 0.0 | 0.0 | 0.00 | 0.00 | 0.00 | 88 | 1017.2 |
| 20260505094550 | 6 | 0 | 0.0 | 0.0 | 0.00 | 0.00 | 0.00 | 87 | 1017.1 |
| 20260505093050 | 6 | 0 | 0.0 | 0.0 | 0.00 | 0.00 | 0.00 | 88 | 1017.1 |
| 20260505091548 | 6 | 0 | 0.0 | 0.0 | 0.00 | 0.00 | 0.00 | 87 | 1017.0 |
| 20260505090052 | 7 | 0 | 0.0 | 0.0 | 0.00 | 0.00 | 0.00 | 87 | 1016.8 |
| 20260505084544 | 7 | 0 | 0.0 | 0.0 | 0.00 | 0.00 | 0.00 | 87 | 1016.9 |
| 20260505083046 | 7 | 0 | 0.0 | 0.0 | 0.00 | 0.00 | 0.00 | 87 | 1016.5 |
| 20260505081554 | 7 | 0 | 0.0 | 0.0 | 0.00 | 0.00 | 0.00 | 87 | 1016.2 |
| 20260505080053 | 7 | 0 | 0.0 | 0.0 | 0.00 | 0.00 | 0.00 | 86 | 1016.3 |
| 20260505074545 | 7 | 0 | 0.0 | 0.0 | 0.00 | 0.00 | 0.00 | 86 | 1016.1 |
| 20260505073057 | 7 | 0 | 0.0 | 0.0 | 0.00 | 0.00 | 0.00 | 86 | 1016.2 |
| 20260505071544 | 8 | 0 | 0.0 | 0.0 | 0.00 | 0.00 | 0.00 | 85 | 1016.4 |
| 20260505070054 | 8 | 0 | 0.0 | 0.0 | 0.00 | 0.00 | 0.00 | 85 | 1016.4 |
| 20260505064548 | 8 | 0 | 0.0 | 0.0 | 0.00 | 0.00 | 0.00 | 84 | 1016.5 |
| 20260505063045 | 8 | 0 | 0.0 | 0.0 | 0.00 | 0.00 | 0.00 | 84 | 1016.7 |
| 20260505061547 | 8 | 0 | 0.0 | 0.0 | 0.00 | 0.00 | 0.00 | 84 | 1016.8 |
| 20260505060047 | 9 | 0 | 0.0 | 0.0 | 0.00 | 0.00 | 0.00 | 83 | 1016.8 |
| 20260505054551 | 9 | 0 | 0.0 | 0.0 | 0.00 | 0.00 | 0.00 | 83 | 1016.7 |
| 20260505053048 | 10 | 0 | 0.0 | 0.0 | 0.00 | 0.00 | 0.00 | 82 | 1016.8 |
| 20260505051546 | 10 | 0 | 0.0 | 0.0 | 0.00 | 0.00 | 0.00 | 82 | 1016.9 |
| 20260505050124 | 10 | 0 | 0.0 | 0.0 | 0.00 | 0.00 | 0.00 | 80 | 1016.9 |
| 20260505041555 | 11 | 0 | 0.0 | 0.0 | 0.00 | 0.00 | 0.00 | 78 | 1016.9 |
| 20260505040059 | 11 | 0 | 0.0 | 0.0 | 0.00 | 0.00 | 0.00 | 78 | 1017.1 |
| 20260505034548 | 11 | 0 | 0.0 | 3.2 | 0.00 | 0.00 | 0.00 | 77 | 1017.1 |
| 20260505033049 | 12 | 198 | 0.0 | 3.2 | 0.00 | 0.00 | 0.00 | 75 | 1017.1 |
| 20260505031549 | 12 | 0 | 0.0 | 0.0 | 0.00 | 0.00 | 0.00 | 73 | 1017.1 |
| 20260505030045 | 13 | 0 | 0.0 | 0.0 | 0.00 | 0.00 | 0.00 | 72 | 1017.1 |
| 20260505024543 | 13 | 0 | 0.0 | 0.0 | 0.00 | 0.00 | 0.00 | 70 | 1017.0 |
| 20260505023048 | 14 | 0 | 0.0 | 0.0 | 0.00 | 0.00 | 0.00 | 68 | 1017.0 |
| 20260505021543 | 15 | 0 | 0.0 | 0.0 | 0.00 | 0.00 | 0.00 | 66 | 1016.7 |
| 20260505020049 | 15 | 0 | 0.0 | 0.0 | 0.00 | 0.00 | 0.00 | 64 | 1016.7 |
| 20260505014603 | 16 | 0 | 0.0 | 0.0 | 0.00 | 0.00 | 0.00 | 63 | 1016.6 |
| 20260505013050 | 16 | 0 | 0.0 | 0.0 | 0.00 | 0.00 | 0.00 | 61 | 1016.3 |
| 20260505011548 | 17 | 0 | 0.0 | 0.0 | 0.00 | 0.00 | 0.00 | 59 | 1016.1 |
| 20260505010052 | 17 | 0 | 0.0 | 0.0 | 0.00 | 0.00 | 0.00 | 57 | 1016.1 |
| 20260505004549 | 18 | 0 | 0.0 | 1.6 | 0.00 | 0.00 | 0.00 | 55 | 1016.0 |
| 20260505003049 | 19 | 0 | 0.0 | 3.2 | 0.00 | 0.00 | 0.00 | 53 | 1015.8 |
| 20260505001602 | 20 | 0 | 0.0 | 0.0 | 0.00 | 0.00 | 0.00 | 49 | 1015.8 |
| 20260505000104 | 21 | 0 | 0.0 | 1.6 | 0.00 | 0.00 | 0.00 | 48 | 1015.5 |
| 20260504234606 | 22 | 198 | 0.0 | 3.2 | 0.00 | 0.00 | 0.00 | 45 | 1015.6 |
| 20260504233050 | 23 | 0 | 0.0 | 6.4 | 0.00 | 0.00 | 0.00 | 41 | 1015.4 |
| 20260504231543 | 23 | 161 | 1.6 | 9.7 | 0.00 | 0.00 | 0.00 | 37 | 1015.3 |
| 20260504230047 | 23 | 217 | 1.6 | 6.4 | 0.00 | 0.00 | 0.00 | 38 | 1015.2 |
| 20260504224603 | 24 | 0 | 1.6 | 14.5 | 0.00 | 0.00 | 0.00 | 40 | 1015.2 |
| 20260504223046 | 24 | 121 | 1.6 | 11.3 | 0.00 | 0.00 | 0.00 | 38 | 1015.2 |
| 20260504221547 | 25 | 113 | 3.2 | 12.9 | 0.00 | 0.00 | 0.00 | 36 | 1015.3 |
| 20260504220047 | 24 | 55 | 0.0 | 11.3 | 0.00 | 0.00 | 0.00 | 35 | 1015.2 |
| 20260504214548 | 25 | 83 | 1.6 | 12.9 | 0.00 | 0.00 | 0.00 | 36 | 1015.2 |
| 20260504213104 | 25 | 0 | 4.8 | 16.1 | 0.00 | 0.00 | 0.00 | 34 | 1015.1 |
| 20260504211545 | 25 | 291 | 3.2 | 17.7 | 0.00 | 0.00 | 0.00 | 34 | 1015.1 |
| 20260504210044 | 26 | 219 | 3.2 | 11.3 | 0.00 | 0.00 | 0.00 | 33 | 1015.2 |
| 20260504204548 | 26 | 136 | 1.6 | 8.0 | 0.00 | 0.00 | 0.00 | 33 | 1015.3 |
| 20260504203056 | 26 | 211 | 1.6 | 9.7 | 0.00 | 0.00 | 0.00 | 33 | 1015.3 |
| 20260504201543 | 25 | 33 | 3.2 | 14.5 | 0.00 | 0.00 | 0.00 | 34 | 1015.4 |
| 20260504200049 | 26 | 240 | 4.8 | 12.9 | 0.00 | 0.00 | 0.00 | 32 | 1015.5 |
| 20260504194559 | 25 | 234 | 3.2 | 12.9 | 0.00 | 0.00 | 0.00 | 29 | 1015.6 |
| 20260504193058 | 25 | 232 | 6.4 | 14.5 | 0.00 | 0.00 | 0.00 | 30 | 1015.8 |
| 20260504191553 | 25 | 200 | 6.4 | 14.5 | 0.00 | 0.00 | 0.00 | 27 | 1016.0 |
| 20260504190112 | 26 | 209 | 3.2 | 17.7 | 0.00 | 0.00 | 0.00 | 26 | 1016.2 |
| 20260504184559 | 26 | 281 | 1.6 | 12.9 | 0.00 | 0.00 | 0.00 | 28 | 1016.4 |
| 20260504183052 | 26 | 67 | 3.2 | 11.3 | 0.00 | 0.00 | 0.00 | 27 | 1016.6 |
| 20260504181546 | 25 | 261 | 3.2 | 9.7 | 0.00 | 0.00 | 0.00 | 29 | 1016.8 |
| 20260504180049 | 25 | 248 | 1.6 | 8.0 | 0.00 | 0.00 | 0.00 | 29 | 1016.8 |
| 20260504174551 | 24 | 5 | 1.6 | 8.0 | 0.00 | 0.00 | 0.00 | 29 | 1017.1 |
| 20260504173051 | 25 | 54 | 1.6 | 8.0 | 0.00 | 0.00 | 0.00 | 29 | 1017.2 |
| 20260504171547 | 24 | 304 | 1.6 | 9.7 | 0.00 | 0.00 | 0.00 | 28 | 1017.3 |